TimeEST,TemperatureF,Dew PointF,Humidity,Sea Level PressureIn,VisibilityMPH,Wind Direction,Wind SpeedMPH,Gust SpeedMPH,PrecipitationIn,Events,Conditions,WindDirDegrees,DateUTC
12:54 AM,8.1,5.0,87,30.04,9.0,WSW,5.8,-,0.00,Snow,Light Snow,240,2013-01-02 05:54:00
1:54 AM,10.9,6.1,81,30.03,10.0,SW,6.9,-,0.00,,Overcast,230,2013-01-02 06:54:00
2:54 AM,12.9,8.1,81,30.03,10.0,SW,9.2,-,N/A,,Overcast,230,2013-01-02 07:54:00
3:54 AM,12.9,7.0,77,30.02,10.0,WSW,6.9,-,N/A,,Mostly Cloudy,240,2013-01-02 08:54:00
4:54 AM,16.0,10.9,81,30.02,10.0,SW,6.9,-,0.00,Snow,Light Snow,230,2013-01-02 09:54:00
5:54 AM,18.0,10.9,74,30.01,9.0,WSW,8.1,-,0.00,Snow,Light Snow,240,2013-01-02 10:54:00
6:54 AM,21.2,12.2,68,30.00,9.0,WSW,16.1,24.2,N/A,Snow,Light Snow,250,2013-01-02 11:54:00
7:54 AM,21.9,12.0,66,30.05,9.0,West,15.0,-,0.00,Snow,Light Snow,260,2013-01-02 12:54:00
8:54 AM,23.0,12.0,63,30.06,10.0,West,12.7,-,0.00,,Overcast,260,2013-01-02 13:54:00
9:54 AM,23.0,12.9,65,30.09,10.0,West,11.5,20.7,0.00,Snow,Light Snow,260,2013-01-02 14:54:00
10:54 AM,23.0,15.1,72,30.09,4.0,West,16.1,21.9,0.00,Snow,Light Snow,270,2013-01-02 15:54:00
11:54 AM,25.0,16.0,69,30.09,4.0,West,11.5,-,0.00,Snow,Light Snow,280,2013-01-02 16:54:00
12:54 PM,25.0,17.1,72,30.09,5.0,West,12.7,-,0.00,Snow,Light Snow,270,2013-01-02 17:54:00
1:54 PM,26.1,17.1,69,30.10,9.0,West,10.4,-,0.00,Snow,Light Snow,270,2013-01-02 18:54:00
2:54 PM,26.1,17.1,69,30.13,7.0,West,9.2,-,0.00,Snow,Light Snow,270,2013-01-02 19:54:00
3:22 PM,26.6,17.6,69,30.12,2.5,North,9.2,-,0.00,Snow,Light Snow,350,2013-01-02 20:22:00
3:30 PM,24.8,19.4,80,30.12,1.0,North,9.2,-,0.00,Snow,Light Snow,360,2013-01-02 20:30:00
3:54 PM,24.1,21.0,88,30.16,1.0,North,8.1,-,0.00,Snow,Light Snow,360,2013-01-02 20:54:00
4:04 PM,24.8,21.2,86,30.13,0.5,North,9.2,-,0.00,Fog-Snow,Light Snow,10,2013-01-02 21:04:00
4:19 PM,24.8,21.2,86,30.13,0.5,NNE,8.1,-,0.01,Fog-Snow,Snow,20,2013-01-02 21:19:00
4:54 PM,23.0,19.9,88,30.18,0.5,NNE,6.9,-,0.02,Fog-Snow,Snow,30,2013-01-02 21:54:00
5:04 PM,23.0,19.4,86,30.15,0.5,NE,10.4,-,0.00,Fog-Snow,Snow,50,2013-01-02 22:04:00
5:32 PM,21.2,17.6,86,30.16,1.0,ENE,9.2,-,0.01,Snow,Light Snow,60,2013-01-02 22:32:00
5:39 PM,21.2,17.6,86,30.16,2.0,ENE,9.2,-,0.01,Snow,Light Snow,70,2013-01-02 22:39:00
5:54 PM,21.0,17.1,85,30.19,2.0,ENE,8.1,-,0.01,Snow,Light Snow,70,2013-01-02 22:54:00
6:06 PM,21.2,17.6,86,30.17,2.5,ENE,6.9,-,0.00,Snow,Light Snow,70,2013-01-02 23:06:00
6:54 PM,19.9,16.0,85,30.20,3.0,ENE,10.4,-,0.00,Snow,Light Snow,70,2013-01-02 23:54:00
7:54 PM,19.9,15.1,81,30.21,6.0,ENE,9.2,-,0.00,Snow,Light Snow,70,2013-01-03 00:54:00
8:06 PM,19.4,15.8,86,30.18,7.0,ENE,8.1,-,0.00,Snow,Light Snow,60,2013-01-03 01:06:00
8:54 PM,18.0,12.9,81,30.23,5.0,East,10.4,-,0.00,Snow,Light Snow,90,2013-01-03 01:54:00
9:01 PM,17.6,12.2,79,30.20,6.0,East,10.4,-,0.00,Snow,Light Snow,100,2013-01-03 02:01:00
9:54 PM,17.1,12.0,81,30.24,5.0,East,8.1,-,0.00,Snow,Light Snow,90,2013-01-03 02:54:00
10:54 PM,16.0,12.0,84,30.24,7.0,East,6.9,-,0.00,Snow,Light Snow,100,2013-01-03 03:54:00
11:10 PM,15.8,10.4,79,30.22,8.0,ESE,8.1,-,0.00,Snow,Light Snow,110,2013-01-03 04:10:00
11:54 PM,15.1,10.0,80,30.25,7.0,ESE,6.9,-,0.00,Snow,Light Snow,120,2013-01-03 04:54:00